Simultaneous Nadir Overpasses (SNOs) Predictions

Prediction of SNOs between GOES-15 and TERRA Satellite Orbit:

Table of predicted SNOs for the next 14.0 days since TLE Epoch: 4/25/2015
Index Date Time (GOES-15) GOES-15 Lat,Lon TERRA Lat,Lon Distance(km) Time Diff (sec)
1 04/26/2015 07:16:15 0.05,-135.37 0.79,-131.92 393.41 80
2 04/26/2015 19:37:33 -0.05,-135.36 0.32,-137.08 195.38 80
3 04/28/2015 19:28:16 -0.05,-135.40 -0.32,-134.18 138.29 80
4 04/29/2015 07:49:45 0.06,-135.43 -0.77,-139.40 450.73 80
5 04/30/2015 19:16:24 -0.05,-135.43 -0.95,-131.31 469.14 80
6 05/01/2015 07:37:54 0.05,-135.46 -0.17,-136.52 120.70 80
7 05/03/2015 07:23:28 0.05,-135.48 0.42,-133.67 206.28 80
8 05/03/2015 19:44:51 -0.06,-135.46 0.68,-138.85 385.79 80
9 05/05/2015 19:33:12
